Time,TemperatureF,DewpointF,PressureIn,WindDirection,WindDirectionDegrees,WindSpeedMPH,WindSpeedGustMPH,Humidity,HourlyPrecipIn,Conditions,Clouds,dailyrainin,SoftwareType,DateUTC
2013-04-29 00:00:00,50.6,35.9,30.26,SE,138,2.0,6.0,57,0.00,,---,0.00,VWS V13.00,2013-04-29 04:00:00,
2013-04-29 00:01:00,50.5,35.8,30.25,SE,140,2.0,6.0,57,0.00,,---,0.00,VWS V13.00,2013-04-29 04:01:00,
2013-04-29 00:06:00,50.4,35.8,30.26,SE,141,2.0,6.0,57,0.00,,---,0.00,VWS V13.00,2013-04-29 04:06:00,
2013-04-29 00:11:00,50.2,35.6,30.26,SSE,148,1.0,5.0,57,0.00,,---,0.00,VWS V13.00,2013-04-29 04:11:00,
2013-04-29 00:16:00,50.1,35.9,30.26,SE,146,2.0,5.0,58,0.00,,---,0.00,VWS V13.00,2013-04-29 04:16:00,
2013-04-29 00:21:00,50.0,35.8,30.26,SSE,151,2.0,6.0,58,0.00,,---,0.00,VWS V13.00,2013-04-29 04:21:00,
2013-04-29 00:26:00,49.9,35.7,30.26,SSE,161,0.0,6.0,58,0.00,,---,0.00,VWS V13.00,2013-04-29 04:26:00,
2013-04-29 00:31:00,49.7,35.5,30.26,SSE,150,2.0,6.0,58,0.00,,---,0.00,VWS V13.00,2013-04-29 04:31:00,
2013-04-29 00:36:00,49.5,35.3,30.26,SSE,148,1.0,6.0,58,0.00,,---,0.00,VWS V13.00,2013-04-29 04:36:00,
2013-04-29 00:41:00,49.5,35.3,30.25,SE,146,0.0,5.0,58,0.00,,---,0.00,VWS V13.00,2013-04-29 04:41:00,
2013-04-29 00:46:00,49.6,35.0,30.26,SE,144,2.0,6.0,57,0.00,,---,0.00,VWS V13.00,2013-04-29 04:46:00,
2013-04-29 00:51:00,49.5,34.9,30.25,SE,144,1.0,6.0,57,0.00,,---,0.00,VWS V13.00,2013-04-29 04:51:00,
2013-04-29 00:56:00,49.4,34.8,30.25,SE,142,2.0,6.0,57,0.00,,---,0.00,VWS V13.00,2013-04-29 04:56:00,
2013-04-29 01:01:00,49.2,35.1,30.25,SE,140,2.0,6.0,58,0.00,,---,0.00,VWS V13.00,2013-04-29 05:01:00,
2013-04-29 01:06:00,49.2,35.1,30.25,SSE,148,0.0,6.0,58,0.00,,---,0.00,VWS V13.00,2013-04-29 05:06:00,
2013-04-29 01:11:00,49.2,35.1,30.25,SSE,149,1.0,4.0,58,0.00,,---,0.00,VWS V13.00,2013-04-29 05:11:00,
2013-04-29 01:16:00,49.1,35.0,30.25,SSE,147,1.0,4.0,58,0.00,,---,0.00,VWS V13.00,2013-04-29 05:16:00,
2013-04-29 01:21:00,49.0,34.9,30.25,SE,146,2.0,4.0,58,0.00,,---,0.00,VWS V13.00,2013-04-29 05:21:00,
2013-04-29 01:26:00,48.9,34.8,30.25,SE,146,1.0,4.0,58,0.00,,---,0.00,VWS V13.00,2013-04-29 05:26:00,
2013-04-29 01:31:00,48.7,34.6,30.25,SE,141,1.0,5.0,58,0.00,,---,0.00,VWS V13.00,2013-04-29 05:31:00,
2013-04-29 01:36:00,48.7,34.6,30.25,SE,140,2.0,5.0,58,0.00,,---,0.00,VWS V13.00,2013-04-29 05:36:00,
2013-04-29 01:41:00,48.6,34.1,30.25,SSE,155,2.0,4.0,57,0.00,,---,0.00,VWS V13.00,2013-04-29 05:41:00,
2013-04-29 01:46:00,48.6,34.5,30.25,SSE,157,2.0,6.0,58,0.00,,---,0.00,VWS V13.00,2013-04-29 05:46:00,
2013-04-29 01:51:00,48.6,34.5,30.25,SSE,157,0.0,6.0,58,0.00,,---,0.00,VWS V13.00,2013-04-29 05:51:00,
2013-04-29 01:56:00,48.4,34.3,30.25,SSE,156,1.0,6.0,58,0.00,,---,0.00,VWS V13.00,2013-04-29 05:56:00,
2013-04-29 02:01:00,48.3,34.2,30.24,SSE,157,0.0,6.0,58,0.00,,---,0.00,VWS V13.00,2013-04-29 06:01:00,
2013-04-29 02:06:00,48.2,34.1,30.24,SSE,155,2.0,6.0,58,0.00,,---,0.00,VWS V13.00,2013-04-29 06:06:00,
2013-04-29 02:11:00,48.0,34.4,30.24,SSE,153,1.0,3.0,59,0.00,,---,0.00,VWS V13.00,2013-04-29 06:11:00,
2013-04-29 02:16:00,47.9,33.8,30.24,SSE,154,0.0,3.0,58,0.00,,---,0.00,VWS V13.00,2013-04-29 06:16:00,
2013-04-29 02:21:00,47.8,34.2,30.24,SSE,148,1.0,5.0,59,0.00,,---,0.00,VWS V13.00,2013-04-29 06:21:00,
2013-04-29 02:26:00,47.8,33.8,30.24,SSE,148,1.0,5.0,58,0.00,,---,0.00,VWS V13.00,2013-04-29 06:26:00,
2013-04-29 02:31:00,47.6,34.0,30.24,SSE,148,0.0,5.0,59,0.00,,---,0.00,VWS V13.00,2013-04-29 06:31:00,
2013-04-29 02:36:00,47.5,33.9,30.24,SSE,147,0.0,5.0,59,0.00,,---,0.00,VWS V13.00,2013-04-29 06:36:00,
2013-04-29 02:41:00,47.3,33.7,30.24,SE,146,0.0,2.0,59,0.00,,---,0.00,VWS V13.00,2013-04-29 06:41:00,
2013-04-29 02:46:00,47.2,34.0,30.24,SSE,147,2.0,3.0,60,0.00,,---,0.00,VWS V13.00,2013-04-29 06:46:00,
2013-04-29 02:51:00,47.1,33.9,30.23,SE,146,0.0,4.0,60,0.00,,---,0.00,VWS V13.00,2013-04-29 06:51:00,
2013-04-29 02:56:00,47.0,33.4,30.23,SE,145,1.0,4.0,59,0.00,,---,0.00,VWS V13.00,2013-04-29 06:56:00,
2013-04-29 03:01:00,46.9,33.3,30.23,SE,142,3.0,4.0,59,0.00,,---,0.00,VWS V13.00,2013-04-29 07:01:00,
2013-04-29 03:06:00,46.9,33.8,30.23,SE,142,1.0,4.0,60,0.00,,---,0.00,VWS V13.00,2013-04-29 07:06:00,
2013-04-29 03:11:00,46.7,33.6,30.23,SE,142,0.0,2.0,60,0.00,,---,0.00,VWS V13.00,2013-04-29 07:11:00,
2013-04-29 03:16:00,46.6,33.9,30.23,SE,142,1.0,2.0,61,0.00,,---,0.00,VWS V13.00,2013-04-29 07:16:00,
2013-04-29 03:21:00,46.5,33.4,30.23,SE,140,2.0,3.0,60,0.00,,---,0.00,VWS V13.00,2013-04-29 07:21:00,
2013-04-29 03:26:00,46.5,33.8,30.23,SE,136,0.0,3.0,61,0.00,,---,0.00,VWS V13.00,2013-04-29 07:26:00,
2013-04-29 03:31:00,46.4,33.7,30.23,SE,136,0.0,4.0,61,0.00,,---,0.00,VWS V13.00,2013-04-29 07:31:00,
2013-04-29 03:36:00,46.4,33.3,30.23,SE,136,0.0,4.0,60,0.00,,---,0.00,VWS V13.00,2013-04-29 07:36:00,
2013-04-29 03:41:00,46.4,33.7,30.23,SE,136,1.0,2.0,61,0.00,,---,0.00,VWS V13.00,2013-04-29 07:41:00,
2013-04-29 03:46:00,46.3,33.2,30.23,SE,136,2.0,2.0,60,0.00,,---,0.00,VWS V13.00,2013-04-29 07:46:00,
2013-04-29 03:51:00,46.3,33.2,30.23,SE,136,0.0,2.0,60,0.00,,---,0.00,VWS V13.00,2013-04-29 07:51:00,
2013-04-29 03:56:00,46.2,33.5,30.24,SE,136,0.0,2.0,61,0.00,,---,0.00,VWS V13.00,2013-04-29 07:56:00,
2013-04-29 04:01:00,46.1,33.8,30.24,SE,136,1.0,2.0,62,0.00,,---,0.00,VWS V13.00,2013-04-29 08:01:00,
2013-04-29 04:06:00,46.0,33.7,30.24,SE,136,1.0,2.0,62,0.00,,---,0.00,VWS V13.00,2013-04-29 08:06:00,
2013-04-29 04:11:00,45.9,33.2,30.24,SE,136,0.0,1.0,61,0.00,,---,0.00,VWS V13.00,2013-04-29 08:11:00,
2013-04-29 04:16:00,45.8,33.1,30.24,SE,136,0.0,2.0,61,0.00,,---,0.00,VWS V13.00,2013-04-29 08:16:00,
2013-04-29 04:21:00,45.9,33.6,30.24,SE,136,0.0,2.0,62,0.00,,---,0.00,VWS V13.00,2013-04-29 08:21:00,
2013-04-29 04:26:00,45.9,33.2,30.24,SE,136,0.0,2.0,61,0.00,,---,0.00,VWS V13.00,2013-04-29 08:26:00,
2013-04-29 04:31:00,45.8,33.5,30.24,SE,136,0.0,2.0,62,0.00,,---,0.00,VWS V13.00,2013-04-29 08:31:00,
2013-04-29 04:36:00,45.7,33.4,30.24,SE,136,0.0,2.0,62,0.00,,---,0.00,VWS V13.00,2013-04-29 08:36:00,
2013-04-29 04:41:00,45.6,32.9,30.24,SE,136,0.0,2.0,61,0.00,,---,0.00,VWS V13.00,2013-04-29 08:41:00,
2013-04-29 04:46:00,45.6,33.3,30.24,SE,136,0.0,3.0,62,0.00,,---,0.00,VWS V13.00,2013-04-29 08:46:00,
2013-04-29 04:51:00,45.6,33.3,30.24,SE,136,0.0,3.0,62,0.00,,---,0.00,VWS V13.00,2013-04-29 08:51:00,
2013-04-29 04:56:00,45.6,33.3,30.24,SE,136,0.0,3.0,62,0.00,,---,0.00,VWS V13.00,2013-04-29 08:56:00,
2013-04-29 05:01:00,45.6,32.9,30.24,SE,136,0.0,3.0,61,0.00,,---,0.00,VWS V13.00,2013-04-29 09:01:00,
2013-04-29 05:06:00,45.6,33.3,30.24,SE,136,0.0,3.0,62,0.00,,---,0.00,VWS V13.00,2013-04-29 09:06:00,
2013-04-29 05:11:00,45.5,32.8,30.25,SE,136,0.0,2.0,61,0.00,,---,0.00,VWS V13.00,2013-04-29 09:11:00,
2013-04-29 05:16:00,45.5,33.2,30.25,SE,136,2.0,2.0,62,0.00,,---,0.00,VWS V13.00,2013-04-29 09:16:00,
2013-04-29 05:21:00,45.5,32.8,30.25,SE,136,2.0,3.0,61,0.00,,---,0.00,VWS V13.00,2013-04-29 09:21:00,
2013-04-29 05:26:00,45.5,33.2,30.25,SE,136,0.0,3.0,62,0.00,,---,0.00,VWS V13.00,2013-04-29 09:26:00,
2013-04-29 05:31:00,45.4,33.2,30.25,SE,136,1.0,3.0,62,0.00,,---,0.00,VWS V13.00,2013-04-29 09:31:00,
2013-04-29 05:36:00,45.3,33.1,30.25,SE,136,0.0,3.0,62,0.00,,---,0.00,VWS V13.00,2013-04-29 09:36:00,
2013-04-29 05:41:00,45.3,33.1,30.25,SE,136,0.0,1.0,62,0.00,,---,0.00,VWS V13.00,2013-04-29 09:41:00,
2013-04-29 05:46:00,45.2,33.0,30.25,SE,136,1.0,1.0,62,0.00,,---,0.00,VWS V13.00,2013-04-29 09:46:00,
2013-04-29 05:51:00,45.1,33.3,30.25,SE,136,0.0,1.0,63,0.00,,---,0.00,VWS V13.00,2013-04-29 09:51:00,
2013-04-29 05:56:00,45.2,33.0,30.25,SE,136,0.0,3.0,62,0.00,,---,0.00,VWS V13.00,2013-04-29 09:56:00,
2013-04-29 06:01:00,45.3,33.5,30.25,SE,136,1.0,3.0,63,0.00,,---,0.00,VWS V13.00,2013-04-29 10:01:00,
2013-04-29 06:06:00,45.3,33.5,30.26,SE,136,0.0,3.0,63,0.00,,---,0.00,VWS V13.00,2013-04-29 10:06:00,
2013-04-29 06:11:00,45.5,33.7,30.26,SE,136,0.0,3.0,63,0.00,,---,0.00,VWS V13.00,2013-04-29 10:11:00,
2013-04-29 06:16:00,45.6,33.8,30.26,SE,136,0.0,3.0,63,0.00,,---,0.00,VWS V13.00,2013-04-29 10:16:00,
2013-04-29 06:21:00,45.8,33.9,30.26,SE,136,0.0,3.0,63,0.00,,---,0.00,VWS V13.00,2013-04-29 10:21:00,
2013-04-29 06:26:00,45.9,34.4,30.26,SE,136,1.0,3.0,64,0.00,,---,0.00,VWS V13.00,2013-04-29 10:26:00,
2013-04-29 06:31:00,46.1,35.0,30.26,SE,136,1.0,3.0,65,0.00,,---,0.00,VWS V13.00,2013-04-29 10:31:00,
2013-04-29 06:36:00,46.1,35.0,30.26,SE,136,0.0,3.0,65,0.00,,---,0.00,VWS V13.00,2013-04-29 10:36:00,
2013-04-29 06:41:00,46.1,34.6,30.26,SE,136,0.0,1.0,64,0.00,,---,0.00,VWS V13.00,2013-04-29 10:41:00,
2013-04-29 06:46:00,46.1,35.0,30.26,SE,136,0.0,1.0,65,0.00,,---,0.00,VWS V13.00,2013-04-29 10:46:00,
2013-04-29 06:51:00,46.1,34.6,30.26,SE,136,0.0,1.0,64,0.00,,---,0.00,VWS V13.00,2013-04-29 10:51:00,
2013-04-29 06:56:00,46.2,35.1,30.26,SE,136,0.0,1.0,65,0.00,,---,0.00,VWS V13.00,2013-04-29 10:56:00,
2013-04-29 07:01:00,46.3,36.0,30.27,SE,136,0.0,2.0,67,0.00,,---,0.00,VWS V13.00,2013-04-29 11:01:00,
2013-04-29 07:06:00,46.4,36.0,30.27,SE,136,0.0,2.0,67,0.00,,---,0.00,VWS V13.00,2013-04-29 11:06:00,
2013-04-29 07:11:00,46.7,36.0,30.27,SE,136,0.0,1.0,66,0.00,,---,0.00,VWS V13.00,2013-04-29 11:11:00,
2013-04-29 07:16:00,46.9,36.5,30.27,SE,136,0.0,2.0,67,0.00,,---,0.00,VWS V13.00,2013-04-29 11:16:00,
2013-04-29 07:21:00,47.0,37.4,30.27,SE,136,0.0,2.0,69,0.00,,---,0.00,VWS V13.00,2013-04-29 11:21:00,
2013-04-29 07:26:00,47.2,36.8,30.27,SE,136,0.0,2.0,67,0.00,,---,0.00,VWS V13.00,2013-04-29 11:26:00,
2013-04-29 07:31:00,47.4,37.0,30.28,SE,136,2.0,2.0,67,0.00,,---,0.00,VWS V13.00,2013-04-29 11:31:00,
2013-04-29 07:36:00,47.7,37.3,30.27,SE,136,0.0,2.0,67,0.00,,---,0.00,VWS V13.00,2013-04-29 11:36:00,
2013-04-29 07:41:00,48.0,37.6,30.27,SE,136,2.0,2.0,67,0.00,,---,0.00,VWS V13.00,2013-04-29 11:41:00,
2013-04-29 07:46:00,48.2,37.8,30.27,SE,136,1.0,2.0,67,0.00,,---,0.00,VWS V13.00,2013-04-29 11:46:00,
2013-04-29 07:51:00,48.5,37.7,30.27,SE,136,0.0,2.0,66,0.00,,---,0.00,VWS V13.00,2013-04-29 11:51:00,
2013-04-29 07:56:00,48.7,37.9,30.27,SE,136,0.0,3.0,66,0.00,,---,0.00,VWS V13.00,2013-04-29 11:56:00,
2013-04-29 08:01:00,49.0,38.5,30.27,SE,136,1.0,3.0,67,0.00,,---,0.00,VWS V13.00,2013-04-29 12:01:00,
2013-04-29 08:06:00,49.3,38.8,30.28,SE,136,0.0,3.0,67,0.00,,---,0.00,VWS V13.00,2013-04-29 12:06:00,
2013-04-29 08:11:00,49.7,39.2,30.27,SE,137,0.0,3.0,67,0.00,,---,0.00,VWS V13.00,2013-04-29 12:11:00,
2013-04-29 08:16:00,50.0,39.5,30.27,SE,138,1.0,3.0,67,0.00,,---,0.00,VWS V13.00,2013-04-29 12:16:00,
2013-04-29 08:21:00,50.5,40.3,30.27,SE,138,2.0,3.0,68,0.00,,---,0.00,VWS V13.00,2013-04-29 12:21:00,
2013-04-29 08:26:00,51.0,40.8,30.27,SE,138,0.0,3.0,68,0.00,,---,0.00,VWS V13.00,2013-04-29 12:26:00,
2013-04-29 08:31:00,51.4,40.8,30.27,SE,138,0.0,3.0,67,0.00,,---,0.00,VWS V13.00,2013-04-29 12:31:00,
2013-04-29 08:36:00,51.9,40.9,30.27,SE,137,1.0,3.0,66,0.00,,---,0.00,VWS V13.00,2013-04-29 12:36:00,
2013-04-29 08:41:00,52.2,41.2,30.27,SE,138,0.0,3.0,66,0.00,,---,0.00,VWS V13.00,2013-04-29 12:41:00,
2013-04-29 08:46:00,52.5,41.1,30.27,SE,138,0.0,3.0,65,0.00,,---,0.00,VWS V13.00,2013-04-29 12:46:00,
2013-04-29 08:50:00,52.9,41.9,30.27,SE,138,0.0,3.0,66,0.00,,---,0.00,VWS V13.00,2013-04-29 12:50:00,
2013-04-29 08:55:00,53.3,42.2,30.27,SE,138,0.0,3.0,66,0.00,,---,0.00,VWS V13.00,2013-04-29 12:55:00,
2013-04-29 09:00:00,53.8,42.7,30.27,SE,137,1.0,3.0,66,0.00,,---,0.00,VWS V13.00,2013-04-29 13:00:00,
2013-04-29 09:05:00,54.2,43.1,30.27,SE,138,0.0,4.0,66,0.00,,---,0.00,VWS V13.00,2013-04-29 13:05:00,
2013-04-29 09:10:00,54.8,43.3,30.27,SE,142,0.0,5.0,65,0.00,,---,0.00,VWS V13.00,2013-04-29 13:10:00,
2013-04-29 09:15:00,55.2,43.2,30.27,SSE,167,0.0,5.0,64,0.00,,---,0.00,VWS V13.00,2013-04-29 13:15:00,
2013-04-29 09:20:00,55.6,43.6,30.27,SSE,167,1.0,5.0,64,0.00,,---,0.00,VWS V13.00,2013-04-29 13:20:00,
2013-04-29 09:25:00,55.9,43.1,30.27,SSE,165,0.0,5.0,62,0.00,,---,0.00,VWS V13.00,2013-04-29 13:25:00,
2013-04-29 09:30:00,56.1,43.3,30.27,SSE,164,2.0,5.0,62,0.00,,---,0.00,VWS V13.00,2013-04-29 13:30:00,
2013-04-29 09:35:00,56.3,43.0,30.26,SSE,165,1.0,5.0,61,0.00,,---,0.00,VWS V13.00,2013-04-29 13:35:00,
2013-04-29 09:40:00,56.6,43.3,30.26,SSE,165,0.0,2.0,61,0.00,,---,0.00,VWS V13.00,2013-04-29 13:40:00,
2013-04-29 09:45:00,57.2,43.9,30.26,SSE,165,0.0,2.0,61,0.00,,---,0.00,VWS V13.00,2013-04-29 13:45:00,
2013-04-29 09:50:00,57.7,43.5,30.26,SSE,165,0.0,4.0,59,0.00,,---,0.00,VWS V13.00,2013-04-29 13:50:00,
2013-04-29 09:55:00,58.1,43.9,30.26,SSE,164,0.0,4.0,59,0.00,,---,0.00,VWS V13.00,2013-04-29 13:55:00,
2013-04-29 10:00:00,58.3,43.6,30.26,SSE,163,0.0,4.0,58,0.00,,---,0.00,VWS V13.00,2013-04-29 14:00:00,
2013-04-29 10:05:00,58.8,43.6,30.25,SSE,163,1.0,5.0,57,0.00,,---,0.00,VWS V13.00,2013-04-29 14:05:00,
2013-04-29 10:10:00,59.0,43.8,30.26,SSE,163,1.0,3.0,57,0.00,,---,0.00,VWS V13.00,2013-04-29 14:10:00,
2013-04-29 10:15:00,59.6,44.4,30.26,SSE,162,2.0,3.0,57,0.00,,---,0.00,VWS V13.00,2013-04-29 14:15:00,
2013-04-29 10:20:00,60.3,44.6,30.25,SE,146,1.0,3.0,56,0.00,,---,0.00,VWS V13.00,2013-04-29 14:20:00,
2013-04-29 10:25:00,61.2,45.4,30.25,SSE,165,3.0,4.0,56,0.00,,---,0.00,VWS V13.00,2013-04-29 14:25:00,
2013-04-29 10:30:00,61.8,45.0,30.25,South,189,1.0,6.0,54,0.00,,---,0.00,VWS V13.00,2013-04-29 14:30:00,
2013-04-29 10:35:00,62.3,44.5,30.25,SSE,156,0.0,6.0,52,0.00,,---,0.00,VWS V13.00,2013-04-29 14:35:00,
2013-04-29 10:40:00,62.7,44.8,30.25,South,180,3.0,6.0,52,0.00,,---,0.00,VWS V13.00,2013-04-29 14:40:00,
2013-04-29 10:45:00,63.0,44.1,30.25,SSE,166,0.0,6.0,50,0.00,,---,0.00,VWS V13.00,2013-04-29 14:45:00,
2013-04-29 10:50:00,63.3,44.9,30.25,SSE,150,2.0,6.0,51,0.00,,---,0.00,VWS V13.00,2013-04-29 14:50:00,
2013-04-29 10:55:00,63.7,45.2,30.25,South,188,2.0,6.0,51,0.00,,---,0.00,VWS V13.00,2013-04-29 14:55:00,
2013-04-29 11:00:00,63.6,44.6,30.24,South,179,3.0,6.0,50,0.00,,---,0.00,VWS V13.00,2013-04-29 15:00:00,
2013-04-29 11:05:00,63.5,44.5,30.25,South,176,3.0,6.0,50,0.00,,---,0.00,VWS V13.00,2013-04-29 15:05:00,
2013-04-29 11:10:00,63.4,46.5,30.25,South,178,2.0,5.0,54,0.00,,---,0.00,VWS V13.00,2013-04-29 15:10:00,
2013-04-29 11:15:00,63.5,45.1,30.25,SSE,165,0.0,6.0,51,0.00,,---,0.00,VWS V13.00,2013-04-29 15:15:00,
2013-04-29 11:20:00,63.5,45.6,30.25,SSE,165,2.0,6.0,52,0.00,,---,0.00,VWS V13.00,2013-04-29 15:20:00,
2013-04-29 11:25:00,63.7,44.7,30.25,SW,219,3.0,9.0,50,0.00,,---,0.00,VWS V13.00,2013-04-29 15:25:00,
2013-04-29 11:30:00,63.8,45.9,30.24,SW,219,2.0,9.0,52,0.00,,---,0.00,VWS V13.00,2013-04-29 15:30:00,
2013-04-29 11:35:00,64.5,46.0,30.25,SW,217,0.0,9.0,51,0.00,,---,0.00,VWS V13.00,2013-04-29 15:35:00,
2013-04-29 11:40:00,64.8,44.7,30.24,SSW,207,0.0,4.0,48,0.00,,---,0.00,VWS V13.00,2013-04-29 15:40:00,
2013-04-29 11:45:00,65.7,45.5,30.24,SSE,166,1.0,7.0,48,0.00,,---,0.00,VWS V13.00,2013-04-29 15:45:00,
2013-04-29 11:50:00,66.1,46.4,30.24,South,186,4.0,7.0,49,0.00,,---,0.00,VWS V13.00,2013-04-29 15:50:00,
2013-04-29 11:55:00,65.6,45.4,30.24,SW,222,7.0,13.0,48,0.00,,---,0.00,VWS V13.00,2013-04-29 15:55:00,
2013-04-29 12:00:00,65.2,45.0,30.23,SSW,209,3.0,13.0,48,0.00,,---,0.00,VWS V13.00,2013-04-29 16:00:00,
2013-04-29 12:05:00,65.4,45.8,30.23,SSW,207,1.0,13.0,49,0.00,,---,0.00,VWS V13.00,2013-04-29 16:05:00,
2013-04-29 12:10:00,66.0,45.2,30.23,SSW,202,1.0,6.0,47,0.00,,---,0.00,VWS V13.00,2013-04-29 16:10:00,
2013-04-29 12:15:00,66.1,44.7,30.23,South,190,0.0,6.0,46,0.00,,---,0.00,VWS V13.00,2013-04-29 16:15:00,
2013-04-29 12:20:00,66.1,45.3,30.23,South,190,1.0,6.0,47,0.00,,---,0.00,VWS V13.00,2013-04-29 16:20:00,
2013-04-29 12:25:00,66.7,44.7,30.22,SE,132,2.0,10.0,45,0.00,,---,0.00,VWS V13.00,2013-04-29 16:25:00,
2013-04-29 12:30:00,67.0,44.4,30.22,South,171,2.0,10.0,44,0.00,,---,0.00,VWS V13.00,2013-04-29 16:30:00,
2013-04-29 12:35:00,67.3,44.1,30.22,SSW,205,4.0,10.0,43,0.00,,---,0.00,VWS V13.00,2013-04-29 16:35:00,
2013-04-29 12:40:00,67.7,43.8,30.22,SSE,153,4.0,10.0,42,0.00,,---,0.00,VWS V13.00,2013-04-29 16:40:00,
2013-04-29 12:45:00,67.3,44.7,30.22,SSW,196,2.0,10.0,44,0.00,,---,0.00,VWS V13.00,2013-04-29 16:45:00,
2013-04-29 12:50:00,67.9,44.6,30.22,SSE,154,3.0,10.0,43,0.00,,---,0.00,VWS V13.00,2013-04-29 16:50:00,
2013-04-29 12:55:00,68.0,43.5,30.21,SE,142,4.0,10.0,41,0.00,,---,0.00,VWS V13.00,2013-04-29 16:55:00,
2013-04-29 13:00:00,68.2,44.9,30.21,SE,126,1.0,10.0,43,0.00,,---,0.00,VWS V13.00,2013-04-29 17:00:00,
2013-04-29 13:05:00,67.9,44.0,30.21,SSW,213,3.0,10.0,42,0.00,,---,0.00,VWS V13.00,2013-04-29 17:05:00,
2013-04-29 13:10:00,67.0,43.8,30.21,SE,140,1.0,6.0,43,0.00,,---,0.00,VWS V13.00,2013-04-29 17:10:00,
2013-04-29 13:15:00,67.2,43.4,30.21,SSE,152,3.0,12.0,42,0.00,,---,0.00,VWS V13.00,2013-04-29 17:15:00,
2013-04-29 13:20:00,67.2,43.4,30.21,SE,146,2.0,12.0,42,0.00,,---,0.00,VWS V13.00,2013-04-29 17:20:00,
2013-04-29 13:25:00,66.7,42.9,30.21,SSW,213,1.0,12.0,42,0.00,,---,0.00,VWS V13.00,2013-04-29 17:25:00,
2013-04-29 13:30:00,66.9,43.1,30.21,SSW,211,1.0,12.0,42,0.00,,---,0.00,VWS V13.00,2013-04-29 17:30:00,
2013-04-29 13:35:00,67.9,42.7,30.21,SE,135,3.0,12.0,40,0.00,,---,0.00,VWS V13.00,2013-04-29 17:35:00,
2013-04-29 13:40:00,67.6,42.4,30.20,SW,218,2.0,11.0,40,0.00,,---,0.00,VWS V13.00,2013-04-29 17:40:00,
2013-04-29 13:45:00,67.2,42.1,30.20,South,182,4.0,14.0,40,0.00,,---,0.00,VWS V13.00,2013-04-29 17:45:00,
2013-04-29 13:50:00,68.6,44.0,30.20,SE,130,3.0,14.0,41,0.00,,---,0.00,VWS V13.00,2013-04-29 17:50:00,
2013-04-29 13:55:00,68.3,43.1,30.20,SE,144,5.0,14.0,40,0.00,,---,0.00,VWS V13.00,2013-04-29 17:55:00,
2013-04-29 14:00:00,67.1,43.3,30.20,SSE,163,5.0,14.0,42,0.00,,---,0.00,VWS V13.00,2013-04-29 18:00:00,
2013-04-29 14:05:00,66.7,43.5,30.20,SW,217,6.0,14.0,43,0.00,,---,0.00,VWS V13.00,2013-04-29 18:05:00,
2013-04-29 14:10:00,67.6,44.3,30.20,SE,144,3.0,15.0,43,0.00,,---,0.00,VWS V13.00,2013-04-29 18:10:00,
2013-04-29 14:15:00,69.0,45.6,30.20,SSE,148,8.0,15.0,43,0.00,,---,0.00,VWS V13.00,2013-04-29 18:15:00,
2013-04-29 14:20:00,68.4,44.4,30.20,ESE,115,3.0,15.0,42,0.00,,---,0.00,VWS V13.00,2013-04-29 18:20:00,
2013-04-29 14:25:00,67.4,44.2,30.20,SSW,206,2.0,15.0,43,0.00,,---,0.00,VWS V13.00,2013-04-29 18:25:00,
2013-04-29 14:30:00,66.9,43.7,30.20,SE,128,1.0,15.0,43,0.00,,---,0.00,VWS V13.00,2013-04-29 18:30:00,
2013-04-29 14:35:00,66.9,43.7,30.20,South,174,0.0,15.0,43,0.00,,---,0.00,VWS V13.00,2013-04-29 18:35:00,
2013-04-29 14:40:00,66.9,43.1,30.20,South,178,4.0,7.0,42,0.00,,---,0.00,VWS V13.00,2013-04-29 18:40:00,
2013-04-29 14:45:00,66.5,43.9,30.19,ENE,63,3.0,10.0,44,0.00,,---,0.00,VWS V13.00,2013-04-29 18:45:00,
2013-04-29 14:50:00,67.5,43.6,30.19,SE,138,5.0,11.0,42,0.00,,---,0.00,VWS V13.00,2013-04-29 18:50:00,
2013-04-29 14:55:00,67.1,43.3,30.19,SE,132,0.0,11.0,42,0.00,,---,0.00,VWS V13.00,2013-04-29 18:55:00,
2013-04-29 15:00:00,68.0,44.1,30.19,SE,124,2.0,11.0,42,0.00,,---,0.00,VWS V13.00,2013-04-29 19:00:00,
2013-04-29 15:05:00,68.9,44.9,30.19,SSE,150,1.0,12.0,42,0.00,,---,0.00,VWS V13.00,2013-04-29 19:05:00,
2013-04-29 15:10:00,69.6,44.9,30.18,SE,127,2.0,4.0,41,0.00,,---,0.00,VWS V13.00,2013-04-29 19:10:00,
2013-04-29 15:15:00,68.5,41.9,30.19,South,189,4.0,9.0,38,0.00,,---,0.00,VWS V13.00,2013-04-29 19:15:00,
2013-04-29 15:20:00,67.9,41.4,30.19,SSW,207,4.0,13.0,38,0.00,,---,0.00,VWS V13.00,2013-04-29 19:20:00,
2013-04-29 15:25:00,68.3,43.1,30.18,SSE,147,2.0,13.0,40,0.00,,---,0.00,VWS V13.00,2013-04-29 19:25:00,
2013-04-29 15:30:00,69.3,44.6,30.18,SE,140,3.0,13.0,41,0.00,,---,0.00,VWS V13.00,2013-04-29 19:30:00,
2013-04-29 15:35:00,69.7,42.3,30.18,SE,132,4.0,13.0,37,0.00,,---,0.00,VWS V13.00,2013-04-29 19:35:00,
2013-04-29 15:40:00,68.9,42.3,30.18,ESE,121,6.0,11.0,38,0.00,,---,0.00,VWS V13.00,2013-04-29 19:40:00,
2013-04-29 15:45:00,68.2,43.6,30.18,SW,219,6.0,11.0,41,0.00,,---,0.00,VWS V13.00,2013-04-29 19:45:00,
2013-04-29 15:50:00,67.7,40.5,30.18,SSE,152,0.0,11.0,37,0.00,,---,0.00,VWS V13.00,2013-04-29 19:50:00,
2013-04-29 15:55:00,67.2,41.4,30.18,SE,132,4.0,11.0,39,0.00,,---,0.00,VWS V13.00,2013-04-29 19:55:00,
2013-04-29 16:00:00,67.1,41.3,30.18,South,176,3.0,11.0,39,0.00,,---,0.00,VWS V13.00,2013-04-29 20:00:00,
2013-04-29 16:05:00,66.7,42.3,30.18,SSE,161,3.0,11.0,41,0.00,,---,0.00,VWS V13.00,2013-04-29 20:05:00,
2013-04-29 16:10:00,66.8,42.4,30.18,SSE,163,4.0,5.0,41,0.00,,---,0.00,VWS V13.00,2013-04-29 20:10:00,
2013-04-29 16:15:00,67.2,42.7,30.18,South,188,3.0,8.0,41,0.00,,---,0.00,VWS V13.00,2013-04-29 20:15:00,
2013-04-29 16:20:00,67.5,43.0,30.18,SE,125,6.0,8.0,41,0.00,,---,0.00,VWS V13.00,2013-04-29 20:20:00,
2013-04-29 16:25:00,67.2,42.7,30.18,SE,131,2.0,11.0,41,0.00,,---,0.00,VWS V13.00,2013-04-29 20:25:00,
2013-04-29 16:30:00,66.9,41.8,30.18,South,178,3.0,11.0,40,0.00,,---,0.00,VWS V13.00,2013-04-29 20:30:00,
2013-04-29 16:35:00,66.6,40.9,30.18,SSE,164,2.0,11.0,39,0.00,,---,0.00,VWS V13.00,2013-04-29 20:35:00,
2013-04-29 16:40:00,66.5,42.1,30.18,South,186,3.0,5.0,41,0.00,,---,0.00,VWS V13.00,2013-04-29 20:40:00,
2013-04-29 16:45:00,66.7,42.3,30.18,SSW,196,5.0,6.0,41,0.00,,---,0.00,VWS V13.00,2013-04-29 20:45:00,
2013-04-29 16:50:00,67.0,41.9,30.18,SSE,159,2.0,10.0,40,0.00,,---,0.00,VWS V13.00,2013-04-29 20:50:00,
2013-04-29 16:55:00,67.7,42.5,30.18,SW,230,4.0,10.0,40,0.00,,---,0.00,VWS V13.00,2013-04-29 20:55:00,
2013-04-29 17:00:00,68.5,43.2,30.18,SE,137,6.0,10.0,40,0.00,,---,0.00,VWS V13.00,2013-04-29 21:00:00,
2013-04-29 17:05:00,68.5,42.6,30.17,South,176,3.0,10.0,39,0.00,,---,0.00,VWS V13.00,2013-04-29 21:05:00,
2013-04-29 17:10:00,68.5,42.6,30.18,South,180,5.0,7.0,39,0.00,,---,0.00,VWS V13.00,2013-04-29 21:10:00,
2013-04-29 17:15:00,67.9,42.1,30.18,SSE,148,1.0,11.0,39,0.00,,---,0.00,VWS V13.00,2013-04-29 21:15:00,
2013-04-29 17:20:00,67.2,42.1,30.18,SSE,161,0.0,11.0,40,0.00,,---,0.00,VWS V13.00,2013-04-29 21:20:00,
2013-04-29 17:25:00,66.7,42.3,30.18,SSW,195,3.0,11.0,41,0.00,,---,0.00,VWS V13.00,2013-04-29 21:25:00,
2013-04-29 17:30:00,66.8,42.4,30.18,SSE,159,0.0,11.0,41,0.00,,---,0.00,VWS V13.00,2013-04-29 21:30:00,
2013-04-29 17:35:00,66.9,41.8,30.18,SE,140,2.0,11.0,40,0.00,,---,0.00,VWS V13.00,2013-04-29 21:35:00,
2013-04-29 17:40:00,66.9,41.8,30.17,South,188,1.0,9.0,40,0.00,,---,0.00,VWS V13.00,2013-04-29 21:40:00,
2013-04-29 17:45:00,66.7,41.6,30.18,North,350,2.0,9.0,40,0.00,,---,0.00,VWS V13.00,2013-04-29 21:45:00,
2013-04-29 17:50:00,66.4,42.0,30.18,SSE,163,0.0,9.0,41,0.00,,---,0.00,VWS V13.00,2013-04-29 21:50:00,
2013-04-29 17:55:00,66.0,41.7,30.18,SW,228,6.0,13.0,41,0.00,,---,0.00,VWS V13.00,2013-04-29 21:55:00,
2013-04-29 18:00:00,65.6,41.9,30.18,SSE,163,0.0,13.0,42,0.00,,---,0.00,VWS V13.00,2013-04-29 22:00:00,
2013-04-29 18:05:00,65.3,41.6,30.19,SW,215,2.0,13.0,42,0.00,,---,0.00,VWS V13.00,2013-04-29 22:05:00,
2013-04-29 18:10:00,65.0,41.4,30.19,SSE,157,4.0,4.0,42,0.00,,---,0.00,VWS V13.00,2013-04-29 22:10:00,
2013-04-29 18:15:00,64.8,41.2,30.19,SSW,212,5.0,8.0,42,0.00,,---,0.00,VWS V13.00,2013-04-29 22:15:00,
2013-04-29 18:20:00,64.7,41.7,30.19,South,186,3.0,11.0,43,0.00,,---,0.00,VWS V13.00,2013-04-29 22:20:00,
2013-04-29 18:25:00,64.5,41.5,30.19,SSW,209,4.0,11.0,43,0.00,,---,0.00,VWS V13.00,2013-04-29 22:25:00,
2013-04-29 18:30:00,64.3,41.3,30.19,WSW,237,3.0,11.0,43,0.00,,---,0.00,VWS V13.00,2013-04-29 22:30:00,
2013-04-29 18:35:00,63.9,41.6,30.20,SW,215,4.0,12.0,44,0.00,,---,0.00,VWS V13.00,2013-04-29 22:35:00,
2013-04-29 18:40:00,63.3,42.2,30.20,SW,223,6.0,11.0,46,0.00,,---,0.00,VWS V13.00,2013-04-29 22:40:00,
2013-04-29 18:45:00,62.7,42.2,30.20,SW,228,3.0,11.0,47,0.00,,---,0.00,VWS V13.00,2013-04-29 22:45:00,
2013-04-29 18:50:00,62.3,41.8,30.20,SSW,209,4.0,11.0,47,0.00,,---,0.00,VWS V13.00,2013-04-29 22:50:00,
2013-04-29 18:55:00,61.9,41.5,30.20,SW,225,8.0,11.0,47,0.00,,---,0.00,VWS V13.00,2013-04-29 22:55:00,
2013-04-29 19:00:00,61.5,41.1,30.20,SW,235,3.0,11.0,47,0.00,,---,0.00,VWS V13.00,2013-04-29 23:00:00,
2013-04-29 19:05:00,61.2,40.8,30.21,SW,227,3.0,11.0,47,0.00,,---,0.00,VWS V13.00,2013-04-29 23:05:00,
2013-04-29 19:10:00,60.8,41.0,30.21,SW,223,2.0,8.0,48,0.00,,---,0.00,VWS V13.00,2013-04-29 23:10:00,
2013-04-29 19:15:00,60.5,40.7,30.21,WSW,242,1.0,8.0,48,0.00,,---,0.00,VWS V13.00,2013-04-29 23:15:00,
2013-04-29 19:20:00,60.2,40.5,30.21,WSW,240,2.0,8.0,48,0.00,,---,0.00,VWS V13.00,2013-04-29 23:20:00,
2013-04-29 19:25:00,60.0,40.3,30.22,SSW,202,1.0,8.0,48,0.00,,---,0.00,VWS V13.00,2013-04-29 23:25:00,
2013-04-29 19:30:00,59.6,39.9,30.22,SW,215,2.0,8.0,48,0.00,,---,0.00,VWS V13.00,2013-04-29 23:30:00,
2013-04-29 19:35:00,59.3,39.6,30.22,SW,224,0.0,8.0,48,0.00,,---,0.00,VWS V13.00,2013-04-29 23:35:00,
2013-04-29 19:40:00,59.0,39.9,30.22,SW,221,4.0,5.0,49,0.00,,---,0.00,VWS V13.00,2013-04-29 23:40:00,
2013-04-29 19:45:00,58.8,39.7,30.22,WSW,242,4.0,5.0,49,0.00,,---,0.00,VWS V13.00,2013-04-29 23:45:00,
2013-04-29 19:50:00,58.6,39.5,30.22,WSW,238,2.0,6.0,49,0.00,,---,0.00,VWS V13.00,2013-04-29 23:50:00,
2013-04-29 19:55:00,58.3,39.8,30.22,SW,229,2.0,6.0,50,0.00,,---,0.00,VWS V13.00,2013-04-29 23:55:00,
2013-04-29 20:00:00,58.0,39.5,30.23,SW,221,2.0,6.0,50,0.00,,---,0.00,VWS V13.00,2013-04-30 00:00:00,
2013-04-29 20:05:00,57.8,39.3,30.23,SW,218,3.0,6.0,50,0.00,,---,0.00,VWS V13.00,2013-04-30 00:05:00,
2013-04-29 20:10:00,57.7,39.2,30.22,SW,215,3.0,4.0,50,0.00,,---,0.00,VWS V13.00,2013-04-30 00:10:00,
2013-04-29 20:15:00,57.3,39.3,30.22,SW,217,3.0,7.0,51,0.00,,---,0.00,VWS V13.00,2013-04-30 00:15:00,
2013-04-29 20:19:00,57.3,39.3,30.23,SW,219,5.0,7.0,51,0.00,,---,0.00,VWS V13.00,2013-04-30 00:19:00,
2013-04-29 20:24:00,57.1,38.7,30.23,SW,218,2.0,7.0,50,0.00,,---,0.00,VWS V13.00,2013-04-30 00:24:00,
2013-04-29 20:29:00,57.0,38.6,30.23,SW,217,3.0,7.0,50,0.00,,---,0.00,VWS V13.00,2013-04-30 00:29:00,
2013-04-29 20:34:00,56.9,39.0,30.23,SW,215,1.0,7.0,51,0.00,,---,0.00,VWS V13.00,2013-04-30 00:34:00,
2013-04-29 20:39:00,56.7,38.8,30.24,SW,215,2.0,3.0,51,0.00,,---,0.00,VWS V13.00,2013-04-30 00:39:00,
2013-04-29 20:44:00,56.6,38.2,30.24,SW,214,3.0,5.0,50,0.00,,---,0.00,VWS V13.00,2013-04-30 00:44:00,
2013-04-29 20:49:00,56.6,38.2,30.24,SW,214,1.0,5.0,50,0.00,,---,0.00,VWS V13.00,2013-04-30 00:49:00,
2013-04-29 20:54:00,56.4,38.5,30.24,SW,214,0.0,5.0,51,0.00,,---,0.00,VWS V13.00,2013-04-30 00:54:00,
2013-04-29 20:59:00,56.2,38.8,30.24,SSW,213,0.0,5.0,52,0.00,,---,0.00,VWS V13.00,2013-04-30 00:59:00,
2013-04-29 21:04:00,56.1,38.7,30.24,SSW,213,0.0,5.0,52,0.00,,---,0.00,VWS V13.00,2013-04-30 01:04:00,
2013-04-29 21:09:00,56.0,38.6,30.24,SSW,211,0.0,3.0,52,0.00,,---,0.00,VWS V13.00,2013-04-30 01:09:00,
2013-04-29 21:14:00,56.0,38.6,30.24,SSW,211,0.0,3.0,52,0.00,,---,0.00,VWS V13.00,2013-04-30 01:14:00,
2013-04-29 21:19:00,55.9,38.5,30.25,SSW,209,1.0,3.0,52,0.00,,---,0.00,VWS V13.00,2013-04-30 01:19:00,
2013-04-29 21:24:00,55.9,39.0,30.25,SSW,207,2.0,3.0,53,0.00,,---,0.00,VWS V13.00,2013-04-30 01:24:00,
2013-04-29 21:29:00,55.9,39.0,30.25,SSW,207,2.0,3.0,53,0.00,,---,0.00,VWS V13.00,2013-04-30 01:29:00,
2013-04-29 21:34:00,55.8,38.9,30.25,SW,224,6.0,6.0,53,0.00,,---,0.00,VWS V13.00,2013-04-30 01:34:00,
2013-04-29 21:39:00,55.8,38.9,30.25,SW,223,2.0,4.0,53,0.00,,---,0.00,VWS V13.00,2013-04-30 01:39:00,
2013-04-29 21:44:00,55.9,38.5,30.25,SW,221,2.0,5.0,52,0.00,,---,0.00,VWS V13.00,2013-04-30 01:44:00,
2013-04-29 21:49:00,56.0,38.6,30.25,SW,219,2.0,5.0,52,0.00,,---,0.00,VWS V13.00,2013-04-30 01:49:00,
2013-04-29 21:54:00,56.0,38.6,30.25,SW,219,2.0,5.0,52,0.00,,---,0.00,VWS V13.00,2013-04-30 01:54:00,
2013-04-29 21:59:00,56.0,38.6,30.25,SW,218,2.0,5.0,52,0.00,,---,0.00,VWS V13.00,2013-04-30 01:59:00,
2013-04-29 22:04:00,55.9,38.5,30.25,SW,218,5.0,5.0,52,0.00,,---,0.00,VWS V13.00,2013-04-30 02:04:00,
2013-04-29 22:09:00,55.8,38.5,30.24,SW,218,2.0,3.0,52,0.00,,---,0.00,VWS V13.00,2013-04-30 02:09:00,
2013-04-29 22:14:00,55.7,37.9,30.24,SW,218,2.0,4.0,51,0.00,,---,0.00,VWS V13.00,2013-04-30 02:14:00,
2013-04-29 22:19:00,55.8,38.0,30.24,SW,214,1.0,5.0,51,0.00,,---,0.00,VWS V13.00,2013-04-30 02:19:00,
2013-04-29 22:24:00,55.8,37.5,30.24,SW,214,1.0,5.0,50,0.00,,---,0.00,VWS V13.00,2013-04-30 02:24:00,
2013-04-29 22:30:00,55.7,37.4,30.25,SW,214,1.0,5.0,50,0.00,,---,0.00,VWS V13.00,2013-04-30 02:30:00,
2013-04-29 22:35:00,55.7,37.4,30.24,SW,215,1.0,5.0,50,0.00,,---,0.00,VWS V13.00,2013-04-30 02:35:00,
2013-04-29 22:40:00,55.7,37.4,30.25,SW,215,0.0,3.0,50,0.00,,---,0.00,VWS V13.00,2013-04-30 02:40:00,
2013-04-29 22:45:00,55.6,38.3,30.25,SW,215,0.0,3.0,52,0.00,,---,0.00,VWS V13.00,2013-04-30 02:45:00,
2013-04-29 22:50:00,55.5,38.2,30.25,SW,215,0.0,3.0,52,0.00,,---,0.00,VWS V13.00,2013-04-30 02:50:00,
2013-04-29 22:55:00,55.3,38.0,30.25,SW,214,2.0,3.0,52,0.00,,---,0.00,VWS V13.00,2013-04-30 02:55:00,
2013-04-29 23:00:00,55.3,38.0,30.25,SW,215,1.0,4.0,52,0.00,,---,0.00,VWS V13.00,2013-04-30 03:00:00,
2013-04-29 23:05:00,55.3,38.0,30.25,SW,215,2.0,5.0,52,0.00,,---,0.00,VWS V13.00,2013-04-30 03:05:00,
2013-04-29 23:10:00,55.3,36.0,30.25,SW,216,1.0,4.0,48,0.00,,---,0.00,VWS V13.00,2013-04-30 03:10:00,
2013-04-29 23:15:00,55.5,35.1,30.25,SW,223,3.0,5.0,46,0.00,,---,0.00,VWS V13.00,2013-04-30 03:15:00,
2013-04-29 23:20:00,55.6,34.6,30.25,SSW,211,3.0,6.0,45,0.00,,---,0.00,VWS V13.00,2013-04-30 03:20:00,
2013-04-29 23:25:00,55.6,34.0,30.25,SSW,210,2.0,6.0,44,0.00,,---,0.00,VWS V13.00,2013-04-30 03:25:00,
2013-04-29 23:30:00,55.5,34.0,30.25,SSW,209,1.0,6.0,44,0.00,,---,0.00,VWS V13.00,2013-04-30 03:30:00,
2013-04-29 23:35:00,55.4,33.9,30.25,SSW,209,3.0,6.0,44,0.00,,---,0.00,VWS V13.00,2013-04-30 03:35:00,
2013-04-29 23:40:00,55.3,33.8,30.25,SSW,208,3.0,4.0,44,0.00,,---,0.00,VWS V13.00,2013-04-30 03:40:00,
2013-04-29 23:45:00,55.2,33.7,30.25,SSW,208,2.0,4.0,44,0.00,,---,0.00,VWS V13.00,2013-04-30 03:45:00,
2013-04-29 23:50:00,55.1,33.6,30.25,SSW,208,1.0,4.0,44,0.00,,---,0.00,VWS V13.00,2013-04-30 03:50:00,
2013-04-29 23:55:00,55.0,32.9,30.25,SSW,212,1.0,4.0,43,0.00,,---,0.00,VWS V13.00,2013-04-30 03:55:00,